Regional Weather Roundup
Issued by NWS Sterling, VA

Home | Current Version | Previous Version | Text Only | Print | Product List | Glossary Off
Versions: 1 2 3 4 5 6 7 8 9 10 11 12 13 14 15 16 17 18 19 20 21 22 23 24 25 26

000
ASUS41 KLWX 111411
RWRLWX

REGIONAL WEATHER ROUNDUP
NATIONAL WEATHER SERVICE BALTIMORE MD/WASHINGTON DC
900 AM EST MON DEC 11 2017

Note: "FAIR" indicates few or no clouds below 12,000 feet
with no significant weather and/or obstructions to visibility.
 TC=TEMPERATURE CELSIUS

 * =Non NWS site. Station does not report precipitation (e.g. rain,
    snow, etc.), thunder, or fog.

DCZ001-MDZ009-015-VAZ040>042-051-053>054-111500-
WASHINGTON METRO

CITY           SKY/WX    TMP DP  RH WIND       PRES   REMARKS
WASHINGTON NAT MOSUNNY   38  29  70 S5        30.10R
DULLES         MOSUNNY   35  31  85 CALM      30.07F
ANDREWS AFB    SUNNY     38  27  65 CALM      30.07S
FT BELVOIR     SUNNY     35  29  79 CALM      30.09S
QUANTICO       SUNNY     36  30  79 CALM      30.11S
COLLEGE PARK*  MOSUNNY   36  30  78 CALM      30.08S
LEESBURG*      SUNNY     36  30  80 W3        30.07S
MANASSAS*      SUNNY     34  28  79 CALM      30.09S
GAITHERSBURG*  SUNNY     35  25  66 CALM      30.07R

$$

MDZ006>007-011-014-111500-
BALTIMORE METRO

CITY           SKY/WX    TMP DP  RH WIND       PRES   REMARKS
BWI AIRPORT    PTSUNNY   37  28  70 CALM      30.08R
MD SCIENCE CTR   N/A     40  25  55 MISG      30.09R
MARTIN STATE   PTSUNNY  N/A N/A N/A CALM      30.10R
ANNAPOLIS      CLOUDY    38  30  73 CALM      30.09R
FORT MEADE*    PTSUNNY   34  30  86 CALM      30.10S

$$

MDZ012-015-019>023-111500-
MARYLAND EASTERN SHORE

CITY           SKY/WX    TMP DP  RH WIND       PRES   REMARKS
OCEAN CITY     SUNNY     38  33  82 CALM      30.11R
SALISBURY      SUNNY     28  28 100 CALM      30.11R
BAY BRIDGE AP* CLOUDY    39  28  65 NW5       30.09R
CAMBRIDGE*     SUNNY     32  30  93 CALM      30.10S
EASTON*        MOSUNNY   39  30  70 CALM      30.13R

$$

MDZ017>025-111500-
SOUTHERN MARYLAND

CITY           SKY/WX    TMP DP  RH WIND       PRES   REMARKS
PATUXENT RIVER SUNNY     36  31  82 SW3       30.11R
ST INIGOES     SUNNY     35  31  85 CALM      30.11R
LEONARDTOWN*   SUNNY     32  30  93 CALM      30.11S

$$

MDZ003>005-111500-
NORTH CENTRAL MARYLAND

CITY           SKY/WX    TMP DP  RH WIND       PRES   REMARKS
FREDERICK*     MOSUNNY   36  25  64 SW3       30.10R
HAGERSTOWN APT CLOUDY    38  22  52 W6        30.05R
WESTMINSTER*   PTSUNNY   34  27  75 SW3       30.04R

$$

MDZ501>502-111500-
WESTERN MARYLAND

CITY           SKY/WX    TMP DP  RH WIND       PRES   REMARKS
OAKLAND*       CLOUDY    25  18  74 W10       29.92S WCI  15
CUMBERLAND*    PTSUNNY   37  21  52 W9        30.09R

$$

VAZ025>031-111500-
SHENANDOAH VALLEY

CITY           SKY/WX    TMP DP  RH WIND       PRES   REMARKS
WINCHESTER*    MOSUNNY   34  23  64 SW5       30.06R
FRONT ROYAL*   FAIR      34  23  64 W3        30.05R
LURAY*         SUNNY     32  27  80 CALM      30.06R
NEW MARKET*    SUNNY     30  23  74 W5        30.05R
STAUNTON*      SUNNY     29  22  75 CALM      30.08R
WAYNESBORO*    SUNNY     36  22  57 CALM      30.05R

$$

WVZ021-048>050-054>055-111500-
EASTERN WEST VIRGINIA PANHANDLE

CITY           SKY/WX    TMP DP  RH WIND       PRES   REMARKS
MARTINSBURG    SUNNY     37  23  56 W3        30.05R
PETERSBURG*    SUNNY     37  22  54 W6        30.06R

$$

VAZ036>039-050-111500-
CENTRAL FOOTHILLS

CITY           SKY/WX    TMP DP  RH WIND       PRES   REMARKS
CHARLOTTESVILL SUNNY     33  25  72 S3        30.08R
CULPEPER*      FAIR      33  26  76 CALM      30.10R
ORANGE*        SUNNY     32  27  80 CALM      30.09R
GORDONSVILLE*  SUNNY     32  26  77 SW5       30.08S
WARRENTON*     SUNNY     35  26  70 SW3       30.08S

$$

VAZ055>057-111500-
NORTH AND CENTRAL PIEDMONT

CITY           SKY/WX    TMP DP  RH WIND       PRES   REMARKS
FREDERICKSBRG* SUNNY     35  28  76 CALM      30.09S
STAFFORD*      SUNNY     32  30  91 CALM      30.13S

$$

NCZ024-NYZ072-PAZ021-071-VAZ022-071-111500-
OTHER REGIONAL OBSERVATIONS

CITY           SKY/WX    TMP DP  RH WIND       PRES   REMARKS
NEW YORK CITY  SUNNY     34  27  75 VRB3      30.05R
PHILADELPHIA   PTSUNNY   37  25  61 W12       30.07R
PITTSBURGH     CLOUDY    32  19  58 VRB6      30.02S
ROANOKE        SUNNY     40  24  53 S5        30.11R
RICHMOND       MOSUNNY   38  25  59 W8        30.11R
RALEIGH        MOSUNNY   33  28  81 SW3       30.15S

$$

ANZ530>537-111500-
MARINE OBSERVATIONS

STATION/POSITION TIME  TEMP    WIND        PRES
                       AIR SEA DIR/SP/G
                 (UTC) (F)     (DEG/KT/KT) (MB)
THOMAS PT LIGHT  1400   39 48  300/  4/  5   N/A
BALT KEY BRIDGE  1348   38     240/  5/  6 1018.7R
COVE POINT       1348   41      CALM  /  4 1020.0R
LEWISETTA        1348   37 43  230/  5/  6 1019.8R
SOLOMONS ISLAND  1348   40 49  200/  2/  3 1019.2R
PINEY POINT      1348          230/  3/  4   N/A

$$





USA.gov is the U.S. government's official web portal to all federal, state and local government web resources and services.